www.pogodaiklimat.ru

Погода и климат >> Архив погоды >> Россия >> Якутия >> Иэма


ПОГОДА в Иэме

  • Прогноз погоды в Иэме
  • Монитор погоды в Иэме
  • Климат города

АРХИВ ПОГОДЫ в Иэме

Время (UTC), дата Ветер
(напр.,м/с)
 
Видим.   Явления Облачность Т
(С)
Тd
(С)
f
(%)
Тe
(С)
Тes
(С)
Комфортность P
(гПа)
Po
(гПа)
Тmin
(С)
Tmax
(С)
R
(мм)
R24
(мм)
S
(см)
09 13.09 СВ 1 50 км 8/0
[Ci]
+4.2 -6.0 47 +4 +4 1023.2 942.3 +4.6
12 13.09 С 2 50 км 10/0
[Cs]
-1.4 -6.5 68 -5 -5 1025.6 942.8
15 13.09 С 2 50 км 6/0
[Cs]
-4.2 -8.0 75 -8 -8 1026.1 942.4
18 13.09 С 2 50 км 3/0
[Ci fib]
-2.0 -4.1 86 -6 -6 1025.1 942.3
21 13.09 штиль 0 50 км ясно -7.7 -9.5 87 -8 -8 1027.0 942.2 -8.4
00 14.09 СЗ 1 50 км ясно -1.5 -5.2 76 -3 -1 1023.6 941.0
03 14.09 ЮЗ 2 50 км ясно +3.1 -3.0 64 +1 +5 1020.3 939.3
06 14.09 З 2 50 км ясно +6.5 -1.9 55 +5 +7 1017.7 937.8
09 14.09 СЗ 2 50 км ясно +6.6 -1.6 56 +5 +5 1016.6 936.8 +6.9
12 14.09 штиль 0 50 км ясно -0.3 -4.1 75 -1 -1 1017.7 936.0
15 14.09 С 2 50 км ясно -3.8 -6.0 85 -8 -8 1017.2 935.3
18 14.09 С 2 50 км ясно -5.3 -6.7 90 -10 -10 1018.2 934.8
21 14.09 С 1 50 км ясно -6.0 -7.5 89 -8 -8 1017.7 934.2 -6.3
00 15.09 штиль 0 50 км ясно -0.0 -3.1 80 -1 +2 1015.0 933.5
03 15.09 ЮЗ 1 50 км ясно +4.8 -2.6 59 +4 +9 1011.9 932.0
06 15.09 ЮЗ 2 50 км ясно +7.8 -2.1 50 +6 +8 1010.0 931.1
09 15.09 СЗ 2 50 км ясно +7.5 -1.8 52 +6 +6 1009.6 930.6 +7.9
12 15.09 С 2 50 км ясно +0.6 -3.7 73 -3 -3 1011.6 930.5
15 15.09 С 2 50 км ясно -2.5 -5.9 77 -6 -6 1012.3 930.3
18 15.09 штиль 0 50 км ясно -3.1 -5.5 83 -4 -4 1012.3 930.2
21 15.09 штиль 0 50 м туман 3/0
[Ci fib]
-5.8 -6.9 92 -7 -7 1013.2 930.2 -6.6
00 16.09 штиль 0 50 км {туман} 3/0
[Ci fib]
+0.2 -3.0 79 -1 +2 1010.7 929.6
03 16.09 З 4 50 км 3/0
[Ci fib]
+6.2 -1.9 56 +3 +6 1007.7 928.5
06 16.09 С 4 50 км 3/0
[Ci fib]
+10.1 +1.1 54 +8 +9 1005.6 927.6
09 16.09 С 4 50 км ясно +8.2 -0.8 53 +5 +5 1006.1 927.6 +10.5
12 16.09 штиль 0 50 км ясно +0.5 -4.2 71 -0 -0 1009.5 928.6
15 16.09 С 2 50 км ясно -3.0 -5.7 82 -7 -7 1010.4 928.4
18 16.09 штиль 0 50 км ясно -5.3 -7.4 85 -6 -6 1011.1 928.4
21 16.09 С 1 50 км 8/0
[Ac lent Cc]
-5.8 -8.0 84 -8 -8 1011.7 928.7 -6.2
00 17.09 СВ 1 50 км 8/0
[As op Cs]
-0.8 -4.0 79 -3 -2 1009.5 928.3
03 17.09 штиль 0 50 км 9/3 600 м
[Sc As op Cs]
+3.3 -3.4 61 +3 +5 1007.7 927.7
06 17.09 С 4 50 км 9/8 600 м
[Sc Ac und Ci]
+6.2 -3.4 50 +3 +3 1006.3 927.3
09 17.09 СЗ 4 50 км 10/9 600 м
[Sc Ac und]
+5.1 -3.1 55 +2 +2 1007.5 928.1 +6.2
12 17.09 СЗ 1 50 км 10/10 600 м
[Sc]
+2.8 -1.7 72 +1 +1 1008.9 928.7
15 17.09 СЗ 2 50 км 10/10 600 м
[Sc]
+1.9 -2.1 75 -1 -1 1009.2 928.7
18 17.09 С 1 50 км 10/10 600 м
[Sc]
+0.6 -2.7 79 -1 -1 1010.0 929.1
21 17.09 СЗ 2 50 км 10/10 600 м
[Sc]
+0.4 -1.9 85 -3 -3 1010.5 929.5 +0.2
00 18.09 СЗ 3 50 км 10/10 600 м
[Sc]
+2.3 -1.0 79 -2 -2 1010.3 929.9
03 18.09 С 2 50 км 10/10 600 м
[Sc]
+3.9 -2.0 65 +1 +1 1010.0 930.1
06 18.09 СЗ 3 50 км 10/8 600 м
[Sc Ac As]
+3.6 -1.1 71 0 0 1010.7 930.6
09 18.09 СЗ 3 50 км в посл. час морось 6/6 300 м
[St Ac trans]
+2.5 -0.8 79 -2 -2 1011.9 931.4 +3.9 0.0
12 18.09 СЗ 3 50 км {морось} 10/0
[Ac As]
+1.0 -1.6 83 -3 -3 1012.6 931.6
15 18.09 С 2 50 км 10/0
[Ac As]
+0.5 -1.5 86 -3 -3 1012.7 931.6
18 18.09 С 3 50 км 10/0
[Cs]
0.0 -2.1 86 -5 -5 1013.1 931.8
21 18.09 С 2 50 км 10/0
[Ac und]
0.0 -2.1 86 -4 -4 1013.5 932.2 0.0 0.0
00 19.09 С 3 50 км 10/3 600 м
[Sc Ac lent Cc]
+0.6 -2.3 81 -4 -3 1013.2 932.1
03 19.09 СЗ 3 50 км 10/0
[Ac und]
+3.1 -2.0 69 -1 0 1012.4 932.0
06 19.09 СЗ 3 50 км 10/0
[Ac und]
+4.1 -1.7 66 +1 +1 1011.9 931.8
09 19.09 С 4 50 км 10/8 600 м
[Sc Ac trans]
+3.4 -1.6 70 -1 -1 1012.5 932.2 +4.1
12 19.09 СЗ 4 50 км 10/6 600 м
[Sc Ac trans]
+1.7 -1.4 80 -3 -3 1013.6 932.7
15 19.09 СЗ 3 50 км 10/4 600 м
[Sc Ac trans]
+0.7 -1.6 85 -4 -4 1014.0 932.8
18 19.09 СЗ 2 50 км 10/4 600 м
[Sc Ac trans]
-0.1 -2.5 84 -4 -4 1014.5 933.1
21 19.09 СЗ 3 50 км 10/0
[Ac trans]
-0.2 -2.3 86 -5 -5 1014.6 933.1 -0.4
00 20.09 СЗ 1 50 км 10/0
[Ac trans]
+0.1 -2.3 84 -2 -1 1014.9 933.5
03 20.09 З 3 50 км 10/0
[Ac und]
+2.0 -2.7 71 -2 -1 1014.1 933.3
06 20.09 СЗ 1 50 км 10/0
[Ac und]
+2.6 -2.9 67 +1 +2 1014.0 933.4

 

Местоположение метеостанции Иэма (Якутия, Россия): широта 65.30 долгота 135.80 высота над уровнем моря 675 м.

В архиве по умолчанию представлена погода в Иэме за последнюю неделю. Архивные данные за месяц целиком и за предыдущие месяцы, начиная с января 2011 года, Вы можете получить, выбрав интересующий диапазон дат из раскрывающегося списка и нажав кнопку "Ввод!".


*Определитесь, кто Вы:
робот инопланетянин человек

Внимание! Время в таблицах - всемирное. Для получения местного времени необходимо прибавить поправку, которая в Иэме равна 9 ч.

Смотрите также архив погоды в соседних городах и на ближайших метеорологических станциях:

Погода в Томпо (Якутия, Россия) (150 км)
Погода в Усть-Чарках (Якутия, Россия) (171 км)
Погода в Екюччю (Якутия, Россия) (250 км)
Погода в Батагае (Якутия, Россия) (267 км)
Погода в Себян-Кюеле (Якутия, Россия) (269 км)
Погода в Верхоянске (Якутия, Россия) (274 км)
Погода в Крест-Хальджае (Якутия, Россия) (284 км)
Погода в Теплом Ключе (Якутия, Россия) (284 км)
Погода в Верхоянском Перевозе (Якутия, Россия) (286 км)
Погода в Восточной (Якутия, Россия) (294 км)

Пояснения к столбцам:

Ветер - указаны скорость ветра в м/с - средняя за 10 мин, порывы в срок и между сроками (в фигурных скобках) и направление, откуда дует ветер: С - северный, СВ - северо-восточный, В - восточный, ЮВ - юго-восточный, Ю - южный, ЮЗ - юго-западный, З - западный, СЗ - северо-западный.
Видимость - горизонтальная дальность видимости в метрах или километрах. При видимости от 1 до 10 км при отсутствии осадков обычно наблюдается дымка, при ухудшении видимости до 1 км и менее - туман. В сухую погоду видимость может ухудшаться дымом, пылью или мглою.
Явления - указаны атмосферные явления, наблюдавшиеся в срок или в последний час перед сроком; фигурными скобками обозначены явления, наблюдавшиеся между сроками (за 1-3 часа до срока); квадратными скобками обозначены град или гололедные отложения с указанием их диаметра в мм.
Облачность - указаны через наклонную черту общая и нижняя облачность в баллах и высота нижней границы облаков в метрах; квадратными скобками обозначены формы облаков: Ci - перистые, Cs - перисто-слоистые, Cc - перисто-кучевые, Ac - высококучевые, As - высокослоистые, Sc - слоисто-кучевые, Ns - слоисто-дождевые, Cu - кучевые, Cb - кучево-дождевые. Подробнее классификацию облаков см. в Атласе облаков (PDF).
T - Температура воздуха - температура, измеренная на высоте 2 м над землей.
Td - Температура точки росы - температура, при понижении до которой содержащийся в воздухе водяной пар достигнет насыщения.
f - Относительная влажность воздуха - влажноcть воздуха, измеренная на высоте 2 м над землей.
Te - Эффективная температура - температура, которую ощущает одетый по сезону человек в тени. Характеристика душности погоды. При расчете учитывается влияние влажности воздуха и скорости ветра на теплоощущения человека.
Tes - Эффективная температура на солнце - температура, которую ощущает человек, с поправкой на солнечный нагрев. Характеристика знойности погоды. Зависит от высоты солнца над горизонтом, облачности и скорости ветра. Ночью, в пасмурную погоду, а также при ветре 12 м/с и более поправка равна нулю.
P - Атмосферное давление - приведенное к уровню моря атмосферное давление.
Po - Атмосферное давление - измеренное на уровне метеостанции атмосферное давление.
Tmin - Минимальная температура - минимум температуры воздуха на высоте 2 м над землей.
Tmax - Максимальная температура - максимум температуры воздуха на высоте 2 м над землей.
R - Количество осадков - Количество выпавших осадков за период времени, мм. При наведении курсора мыши на число - период времени, за который выпало указанное количество осадков.
R24 - Количество осадков - Количество выпавших осадков за 24 часа, мм.
S - Снежный покров - Высота снежного покрова, см. При наведении курсора мыши на число - состояние снежного покрова и степень покрытия местности в баллах.